TimeEST,TemperatureF,Dew PointF,Humidity,Sea Level PressureIn,VisibilityMPH,Wind Direction,Wind SpeedMPH,Gust SpeedMPH,PrecipitationIn,Events,Conditions,WindDirDegrees,DateUTC
12:14 AM,33.8,26.6,75,29.71,4.0,North,12.7,25.3,0.02,Snow,Light Snow,360,2012-11-08 05:14:00
12:52 AM,33.1,27.0,78,29.70,2.0,North,16.1,23.0,0.03,Snow,Light Snow,10,2012-11-08 05:52:00
1:01 AM,33.8,28.4,81,29.69,1.8,North,15.0,23.0,0.00,Snow,Light Snow,360,2012-11-08 06:01:00
1:30 AM,33.8,28.4,81,29.69,3.0,North,16.1,23.0,0.01,Snow,Light Snow,10,2012-11-08 06:30:00
1:52 AM,34.0,28.0,79,29.71,10.0,North,15.0,20.7,0.01,,Overcast,360,2012-11-08 06:52:00
2:52 AM,34.0,28.0,79,29.69,8.0,North,18.4,24.2,0.01,Rain,Rain,350,2012-11-08 07:52:00
3:52 AM,35.1,28.0,76,29.68,10.0,North,12.7,25.3,0.00,,Overcast,10,2012-11-08 08:52:00
4:52 AM,36.0,28.0,73,29.67,10.0,North,19.6,31.1,0.00,Rain,Light Rain,360,2012-11-08 09:52:00
5:52 AM,36.0,28.0,73,29.66,10.0,North,17.3,26.5,0.00,,Overcast,360,2012-11-08 10:52:00
6:52 AM,36.0,28.9,76,29.66,9.0,North,16.1,25.3,0.01,Rain,Light Rain,360,2012-11-08 11:52:00
7:52 AM,37.0,28.9,73,29.66,10.0,North,16.1,27.6,0.00,,Overcast,350,2012-11-08 12:52:00
8:52 AM,36.0,28.9,76,29.67,8.0,NNW,12.7,20.7,0.00,Rain,Light Rain,340,2012-11-08 13:52:00
9:52 AM,37.0,30.0,76,29.67,10.0,North,17.3,26.5,0.00,,Overcast,350,2012-11-08 14:52:00
10:52 AM,39.0,28.9,67,29.66,10.0,North,17.3,33.4,N/A,,Overcast,360,2012-11-08 15:52:00
11:52 AM,39.9,28.0,63,29.66,10.0,North,12.7,25.3,N/A,,Overcast,350,2012-11-08 16:52:00
12:52 PM,39.9,28.9,65,29.65,10.0,North,17.3,26.5,0.00,,Overcast,350,2012-11-08 17:52:00
1:52 PM,41.0,28.9,62,29.67,10.0,North,11.5,20.7,N/A,,Overcast,350,2012-11-08 18:52:00
2:52 PM,39.0,30.0,70,29.69,10.0,North,12.7,21.9,N/A,,Overcast,350,2012-11-08 19:52:00
3:52 PM,39.0,30.0,70,29.71,10.0,North,11.5,19.6,N/A,,Overcast,350,2012-11-08 20:52:00
4:52 PM,39.0,30.0,70,29.73,10.0,NNW,17.3,25.3,N/A,,Overcast,340,2012-11-08 21:52:00
5:24 PM,39.2,30.2,70,29.74,10.0,NNW,13.8,28.8,N/A,,Overcast,340,2012-11-08 22:24:00
5:52 PM,39.0,30.0,70,29.76,10.0,NNW,13.8,20.7,N/A,,Overcast,330,2012-11-08 22:52:00
6:52 PM,37.9,30.0,73,29.77,10.0,North,16.1,23.0,N/A,,Overcast,350,2012-11-08 23:52:00
7:52 PM,39.0,28.0,65,29.79,10.0,NNW,13.8,27.6,N/A,,Overcast,340,2012-11-09 00:52:00
8:13 PM,39.2,28.4,65,29.78,10.0,North,15.0,24.2,N/A,,Overcast,350,2012-11-09 01:13:00
8:52 PM,39.0,28.0,65,29.80,10.0,North,15.0,21.9,N/A,,Overcast,350,2012-11-09 01:52:00
9:16 PM,39.2,28.4,65,29.79,10.0,North,11.5,23.0,N/A,,Overcast,350,2012-11-09 02:16:00
9:52 PM,39.9,28.0,63,29.80,10.0,NNW,13.8,27.6,N/A,,Overcast,340,2012-11-09 02:52:00
10:09 PM,39.2,28.4,65,29.80,10.0,NNW,12.7,21.9,N/A,,Overcast,340,2012-11-09 03:09:00
10:52 PM,39.9,28.0,63,29.81,10.0,North,10.4,21.9,N/A,,Overcast,350,2012-11-09 03:52:00
11:52 PM,39.9,28.0,63,29.82,10.0,NNW,15.0,26.5,N/A,,Overcast,340,2012-11-09 04:52:00